Regional Weather Roundup
Issued by NWS Wakefield, VA

Home | Current Version | Previous Version | Text Only | Print | Product List | Glossary On
Versions: 1 2 3 4 5 6 7 8 9 10 11 12 13 14 15 16 17 18 19 20 21 22 23 24 25 26 27 28 29 30 31 32 33 34 35 36 37 38 39 40 41 42 43 44 45 46 47 48 49 50
000
ASUS41 KAKQ 290814
RWRAKQ

REGIONAL WEATHER ROUNDUP
NATIONAL WEATHER SERVICE WAKEFIELD VA
400 AM EDT SAT AUG 29 2015

Note: "fair" indicates few or no clouds below 12,000 feet with no
significant weather and/or obstructions to visibility. * = Denotes
station may not report precipitation (e.g., rain,snow,etc.),
thunder or fog.

VAZ042-051-052>054-056-290900-
NORTHERN VIRGINIA

CITY           SKY/WX    TMP DP  RH WIND       PRES   REMARKS
WASH NATIONAL  MOCLDY    70  62  76 S5        30.20S
DULLES         PTCLDY    65  59  81 CALM      30.20R
FORT BELVOIR   PTCLDY    62  60  94 CALM      30.19S
QUANTICO       CLEAR     70  58  65 W5        30.20S
FREDERICKSBRG* MOCLDY    65  63  92 CALM      30.19S
STAFFORD*      CLEAR     60  58  94 CALM      30.23S
WARRENTON      MOCLDY    60  60  99 CALM      30.20R FOG
CULPEPER*      CLEAR     60  60  99 CALM      30.20S FOG
MANASSAS*      CLEAR     63  61  94 CALM      30.20S
LEESBURG*      PTCLDY    66  64  94 S3        30.21R
WINCHESTER     CLEAR     61  59  94 CALM      30.18S
FRONT ROYAL*   FAIR      61  59  94 CALM      30.18R
LURAY*         FAIR      61  61 100 CALM      30.19S
$$

VAZ048-049-060>072-079>083-290900-
CENTRAL AND SOUTH CENTRAL VIRGINIA

CITY           SKY/WX    TMP DP  RH WIND       PRES   REMARKS
RICHMOND       PTCLDY    64  59  83 CALM      30.20S
CHESTERFIELD*  PTSUNNY   61  48  63 CALM      30.21S
PETERSBURG*    MOCLDY    59  59 100 CALM      30.20S FOG
HANOVER        PTCLDY    61  59  93 CALM      30.21S
TAPPAHANNOCK*  CLEAR     58  55  89 CALM      30.20S
QUINTON*       FAIR      59  58  97 CALM      30.20S
CHARLOTTSVILLE CLEAR     64  59  83 CALM      30.20S
GORDONSVILLE*  FAIR      62  61  97 CALM      30.19S
ORANGE*        PTCLDY    61  61 100 CALM      30.21S
LOUISA*        PTCLDY    61  57  88 CALM      30.20R
BUMPASS*       CLOUDY    61  59  93 CALM      30.20S
FARMVILLE*     MOCLDY    63  63 100 CALM      30.19R
CREWE*         FAIR     N/A N/A N/A CALM      30.20S
FORT PICKETT*  PTSUNNY   61  58  89 CALM      30.20S
CHASE CITY*    FAIR      64  64 100 CALM      30.20S
CLARKSVILLE*   FAIR      61  61 100 CALM      30.20S
SOUTH HILL*    CLEAR     58  56  95 CALM      30.25S
LAWRENCEVILLE* FAIR      61  59  94 CALM      30.19F
EMPORIA*       CLEAR     55  55 100 CALM      30.21S FOG
$$

VAZ088>098-290900-
SOUTHEAST VIRGINIA

CITY           SKY/WX    TMP DP  RH WIND       PRES   REMARKS
NORFOLK        CLEAR     66  60  81 CALM      30.19S
VIRGINIA BEACH PTCLDY    65  58  78 CALM      30.18S
NORFOLK NAVAL  PTCLDY    64  59  83 CALM      30.20S
WEST POINT*    CLEAR     62  59  91 CALM      30.21S
SALUDA*        FAIR      61  59  94 CALM      30.19S
NEWPORT NEWS   CLEAR     60  58  92 CALM      30.19S
LANGLEY AFB    CLEAR     63  61  92 CALM      30.18S
FORT EUSTIS    CLEAR     64  64 100 CALM      30.17S
WILLIAMSBURG*  CLEAR     66  64  94 CALM      30.20S
HR EXEC AP*      N/A     54  48  82 CALM      30.21S
FRANKLIN*      CLEAR     57  55  95 CALM      30.19F
WAKEFIELD      CLEAR     58  55  90 CALM      30.20S
$$

VAZ020-022-025-037-045-290900-
WEST CENTRAL AND SOUTHWEST VIRGINIA

CITY           SKY/WX    TMP DP  RH WIND       PRES   REMARKS
STAUNTON*      PTCLDY    63  59  88 CALM      30.22F
WAYNESBORO*    FAIR      64  59  85 CALM      30.22S
HOT SPRINGS VA CLEAR     62  56  79 S5        30.29S
LYNCHBURG      PTCLDY    60  59  96 CALM      30.23R
DANVILLE       PTCLDY    61  58  90 CALM      30.20F
SOUTH BOSTON*  PTSUNNY   59  57  95 CALM      30.20S
MARTINSVILLE   PTCLDY    58  58 100 CALM      30.24R FOG
ROANOKE        PTCLDY    66  61  84 SE3       30.23R
BLACKSBURG     PTCLDY    62  61  97 CALM      30.27S
DUBLIN*        CLOUDY    62  62 100 CALM      30.26S FOG
MARION*        MOCLDY    60  58  93 CALM      30.28S
HILLSVILLE*    PTCLDY    62  58  84 S5        30.26R
RICHLANDS*     FAIR      67  24  19 S3        30.24S
WISE*          MOCLDY    66  54  63 SW5       30.25S
ABINGDON*      PTCLDY    64  58  83 CALM      30.23S
$$

MDZ021>025-VAZ099-100-290900-
SOUTHERN MARYLAND AND THE DELMARVA PENINSULA

CITY           SKY/WX    TMP DP  RH WIND       PRES   REMARKS
PATUXENT RIVER PTCLDY    60  58  92 CALM      30.19S
BAY BRIDGE APT   N/A     72  61  68 SW3       30.19F
LEONARDTOWN    MOCLDY    63  59  88 CALM      30.21S
DOVER          CLEAR     65  59  81 SW3       30.18S
GEORGETOWN     CLEAR     59  56  89 CALM      30.21S
EASTON         NOT AVBL
CAMBRIDGE      CLEAR     61  59  94 CALM      30.19S
SALISBURY      CLEAR     58  55  90 CALM      30.20S
OCEAN CITY     CLEAR     58  55  90 CALM      30.20S
WALLOPS ISLAND CLEAR     61  59  93 CALM      30.20S
ACCOMACK*      CLEAR     55  55 100 CALM      30.19S
$$

NCZ012>017-030>032-290900-
NORTH CENTRAL AND EASTERN NORTH CAROLINA

CITY           SKY/WX    TMP DP  RH WIND       PRES   REMARKS
ROANOKE RAPIDS FAIR      55  55 100 CALM      30.19S FOG
RALEIGH        MOCLDY    63  59  87 CALM      30.20S
ELIZABETH CITY PTCLDY    63  61  93 CALM      30.17F
AHOSKIE*       PTCLDY    57  55  92 CALM      30.19S
EDENTON*       PTCLDY    63  61  94 N6        30.18S
CURRITUCK*     PTCLDY    64  61  88 CALM      30.18S
KILL DEVIL HLS MOCLDY    74  64  69 NE6       30.14F
MANTEO         PTCLDY    73  66  79 NE8       30.16S
CAPE HATTERAS  CLOUDY    76  69  79 E9        30.13F
TARBORO*       FOG       57  56  95 CALM      30.19S VSB 1/2
GOLDSBORO      CLEAR     62  60  93 CALM      30.16S
WASHINGTON     CLEAR     62  61  97 N6        30.17S
GREENVILLE     CLEAR     61  59  94 CALM      30.19S FOG
NEW BERN       PTCLDY    70  66  87 NE6       30.16F
WILMINGTON     CLEAR     67  64  90 NE5       30.14S
$$

VAZ048-290900-
ELSEWHERE

CITY           SKY/WX    TMP DP  RH WIND       PRES   REMARKS
HARRISBURG PA  PTCLDY    62  57  83 CALM      30.19S
BALTIMORE      PTCLDY    61  59  93 CALM      30.19F
ANNAPOLIS      CLEAR     68  60  75 CALM      30.18F
ANDREWS AFB    MOCLDY    62  59  91 S5        30.19S
PHILADELPHIA   CLEAR     68  60  75 SW7       30.20S
HENDERSON NC   CLEAR     62  59  88 CALM      30.21R
GREENSBORO     PTCLDY    66  58  75 S3        30.20S
ROCKY MOUNT    FOG       60  59  96 CALM      30.19S VSB 1
$$

VAZ100-290900-
MARINE

STATION/POSITION TIME  TEMP    WIND        PRES    WAVE   SWELL
                       AIR SEA DIR/SP/G            HT/PER HT/PER
                 (UTC) (F)     (DEG/KT/KT) (MB)    (FT/S) (FT/S)
15NM E FENWICK I 0750   75 78  220/  4/  6 1022.7S   3/11   3/11
THOMAS POINT MD  0800          230/  8       N/A
CHESAPEAKE LGHT  0700   75      70/  8/  9 1022.7F
CAPE HENRY BUOY  0728      78                N/A     3/10   2/11
CAPE CHARLES BUO 0726      78                N/A     3/11   3/11
OFFSHORE WE BUOY 0711      78                N/A     3/10   3/10
64NM E OF VA BCH 0750   77 80   60/  8/ 12 1021.2F   4/10   3/10
44100 DUCK FRF   0724      77                N/A     4/11   2/11
44056 DUCK FRF   0711      78                N/A     3/11   2/11
DIAMOND SHLS NC  0750   76 82   20/ 19/ 23 1019.7F   4/11   3/11
CAPE LOOKOUT NC  0800   76      20/ 12/ 14 1019.5F
$$


USA.gov is the U.S. government's official web portal to all federal, state and local government web resources and services.